AQI (35)

Current Conditions for Foresthill, CA. Clear skies, Dry   
Visibility: 10 miles
Foresthill Advisory text: Warning Description: Special Statement Warning Date: 2:00 PM PDT on September 29, 2016

  Summary / Temperature 

Current Temperature
61.9°F
16.6°C
(24/hr Ago)
68.1°F
(Apparent temp)
57.9°F
Comfortable
Wind Chill Graphs
61.9°F 

61.9°F/ 16.6°C
 --- Virtual Temp: 63.9°F ---

 Temp Rate:

 24/hr Difference:

 Avg Running Temp:

 Todays High:

 Todays Low:

 Y-days High:

 Y-days Low:

 Todays WChill:

 Y-days WChill:

 Evapotranspiration:

-0.8°F/hr 

-6.2°F

62.8°F

64.5°F 12:00am

61.9°F 2:57am

82.4°F 1:45pm

64.4°F 11:58pm

61.0°F 2:45am

63.4°F 11:49pm

0.006 in

115' Above Ground

 Temperature:

 6'AGL VRS 115'AGL:

 Avg Running Temp:

 Humidity:

 Todays High:

 Todays Low:

 Y-days High:

 Y-days Low:

62.0°F 

+0.1°F

63.4°F

46% 

65.0°F 12:00am

62.0°F 2:53am

81.0°F 12:42pm

65.0°F 11:01pm

Temp & Humidity Graphs

  Wind 

Wind Speed

 4.0 mph

Gusting to

 9.0 mph

Wind from SE

133°  SE

Light breeze

 Avg speed:

 Wind Run:

 Peak Gust:

  4.0 mph 

10.0 miles

  15.0 mph 1:14am

  Almanac  

Moon age: 28 days,20 hours,59 minutes,1%

New moon
0%
Illuminated
28 days in cycle

 Moonrise:

 Moonset:

 Sunrise:

 Sunset:

 Solar Noon:

6:36am

6:54pm

7:00am

6:47pm

12:53pm

2min 32s less daylight tomorrow 

  Solar Radiation 

(Current Solar)
  No Sun Light
(Todays High)
 None@12:00am

Rain

 Rain Today:

 Rain Rate (/hr):

 Rain last hour:

 Rain Yesterday:

 This Month:

 Season Total:

16 Days Since Last Rain Day

0.00 in

0.000 in

0.00 in

0.00 in

0.08 in

0.08 in

Updated Time

Updated: 9/30/16  3:01am

(Updated  sec ago)

Humidity & Barometer

 Humidity:

 Wetbulb:

 Dew Point:

 Barometer:

49% 

52.4°F 

42.5°F 

30.014 inHg 

 Baro Trend:  Steady 
Northern Calif
Preparedness
Fire 
Level 

    UV Index  

(Current UV)
0.0  None
(Todays High) @ 12:00am
0.0   None

Weather Underground 5 day Forecast

Fri Sat Sun Mon Tue
Partly Cloudy Partly Cloudy  b?/b - T-storms  Mostly Cloudy Mostly Cloudy
Partly Cloudy Partly Cloudy  ? - T-storms  Mostly Cloudy Mostly Cloudy
75° 70° 63° 62° 68°
47° 46° 44° 45° 50°

Foresthill Probe 2 Stats  
Foresthill Probe 2: is located on Thomas Street
at 3000 feet. The main Foresthill Weather site
is located on Melody ln at the 2860 foot elevation

Calm
59.4°F
15.2°C
Temp Rate:
-0.8°F
Calm
Gusting to
2.0 mph
(Humidity)
53%
Wind from SE
124°  SE
Updated: 30/09/16 - 02:58:38
 Todays High: 61.8°F 00:00
 Todays Low: 59.4°F 02:52
 Rain Today: 0.00 in
 Season Total: 0.04 in

Foresthill Wx: Monthly,Yearly, Highs and Lows 

Foresthill  
This Weather Data is coming from the main Foresthill
Weather site located on Melody ln at the 2860 foot
elevation
Not Foresthill Probe 2
Weather Data
Month
  High
Month
  Low
Year
High
Year
Low
Temp 91.0°F
9/19/16
46.0°F
9/22/16
96.7°F
7/27/16
28.4°F
2/1/16
Humidity 91%
9/13/16
13%
9/21/16
100%
1/6/16
12%
8/4/16
Heat Index 87.0°F
9/19/16
48.6°F
9/22/16
93.3°F
7/27/16
33.3°F
2/1/16
Wind Chill 91.0°F
9/19/16
41.1°F
9/22/16
96.7°F
7/27/16
15.8°F
2/1/16
Wind Gust 25 mph
9/12/16
0 mph
9/1/16
48 mph
2/17/16
0 mph
1/1/16
Barometer 30.18 in
9/23/16
29.73 in
9/3/16
30.56 in
2/3/16
29.44 in
2/17/16
ET 0.20 in
9/11/16
0.00 in
9/1/16
0.27 in
6/22/16
0.00 in
1/1/16
Dew Point 53.9°F
9/9/16
17.1°F
9/21/16
64.3°F
6/4/16
17.1°F
9/21/16
Infrared Satellite Regional Radar Satellite Imagery Sacramento,CA.  (click to enlarge)
NWS Weather Forecast - Summary
Updated: Thursday, Sepember 29, 2016 - 2:56pm (PDT)
NWS Weather Forecast: Overnight and Friday (Updated: 2:26 am PDT Sep 30, 2016)
Overnight

Overnight: Clear, with a low around 57. East wind around 7 mph.
Clear


Lo 57 °F
NWS forecast: Clear, with a low around 57. East wind around 7 mph.
Friday

Friday: Sunny, with a high near 73. East wind around 9 mph becoming south southwest in the afternoon.
Sunny


Hi 73 °F
NWS forecast: Sunny, with a high near 73. East wind around 9 mph becoming south southwest in the afternoon.
YR.NO 10 Day Weather forecast
Last update: 09/29/2016 @ 12:31
Next update: 09/30/2016 @ 01:00
Provided by: 22
      Temperature Precipitation Pressure Wind  
Today
09/30/2016
02:00 05:00 57°F   30.04 inHg Light breeze from east-southeast 4 mph
  05:00 11:00 54°F   30.04 inHg Light breeze from east 4 mph
  11:00 17:00 72°F   30.05 inHg Light breeze from south-southwest 7 mph
  17:00 23:00 68°F   29.99 inHg Light breeze from south-southwest 7 mph
  23:00 05:00 52°F   30.05 inHg Light air from south-southeast 3 mph
      Temperature Precip Pressure Wind  
Saturday
10/01/2016
05:00 11:00 45°F   30.05 inHg Light air from southeast 3 mph
  11:00 17:00 61°F   30.09 inHg Light breeze from west-southwest 4 mph
  17:00 23:00 63°F   30.00 inHg Light breeze from west-southwest 5 mph
  23:00 05:00 46°F   30.01 inHg Light air from east 3 mph
      Temperature Precip Pressure Wind  
Sunday
10/02/2016
05:00 11:00 45°F   29.97 inHg Light breeze from east-southeast 4 mph
  11:00 17:00 55°F 0.41 in 30.04 inHg Gentle breeze from south-southwest 8 mph
  17:00 23:00 46°F 0.15 in 30.02 inHg Light breeze from south-southwest 5 mph
  23:00 05:00 43°F 0.09 in 30.05 inHg Light breeze from southeast 5 mph
      Temperature Precip Pressure Wind  
Monday
10/03/2016
05:00 11:00 43°F   30.06 inHg Light breeze from east-southeast 4 mph
  11:00 17:00 48°F   30.14 inHg Light air from south 2 mph
  17:00 23:00 54°F   30.06 inHg Light breeze from west 5 mph
  23:00 05:00 48°F   30.05 inHg Light air from northeast 1 mph
      Temperature Precip Pressure Wind  
Tuesday
10/04/2016
05:00 11:00 46°F   30.01 inHg Light air from east-northeast 1 mph
  11:00 17:00 55°F   30.04 inHg Light air from west-southwest 1 mph
  17:00 23:00 61°F   29.97 inHg Light breeze from west 4 mph
  23:00 05:00 46°F   30.01 inHg Light air from east-northeast 3 mph
      Temperature Precip Pressure Wind  
Wednesday
10/05/2016
05:00 11:00 43°F   30.00 inHg Light breeze from east-northeast 4 mph
  11:00 17:00 63°F   30.04 inHg Light air from west 2 mph
  17:00 23:00 66°F   29.98 inHg Light breeze from west 4 mph
  23:00 05:00 48°F   30.02 inHg Light breeze from east-northeast 4 mph
      Temperature Precip Pressure Wind  
Thursday
10/06/2016
05:00 11:00 45°F   30.02 inHg Light breeze from east-northeast 5 mph
  11:00 17:00 68°F   30.02 inHg Light air from west-southwest 3 mph
  17:00 23:00 66°F   29.96 inHg Light air from southwest 3 mph
  23:00 05:00 48°F   29.96 inHg Light breeze from east-northeast 4 mph
      Temperature Precip Pressure Wind  
Friday
10/07/2016
05:00 11:00 45°F   29.93 inHg Light breeze from east-northeast 5 mph
  11:00 17:00 70°F   29.94 inHg Light air from west 3 mph
  17:00 23:00 70°F   29.87 inHg Light breeze from west-southwest 4 mph
  23:00 05:00 50°F   29.90 inHg Light air from east-northeast 3 mph
      Temperature Precip Pressure Wind  
Saturday
10/08/2016
05:00 11:00 48°F   29.87 inHg Light breeze from east-northeast 4 mph
  11:00 17:00 70°F   29.90 inHg Light breeze from south-southwest 4 mph
  17:00 23:00 70°F   29.86 inHg Light breeze from south-southwest 5 mph
  23:00 05:00 55°F   29.97 inHg Light air from east-southeast 3 mph
How Close Are We To this Month's Temperature Record ?
Updated Friday, Sep 30, 2016- 2:55:00 AM

Current Temperature: 61.9°F

September's High: Temperature Record 95.9°F - Set on Wed, Sep 9, 2015 - 1:44:00 PM
We are currently 34°F Less than this Month's record High

September's Low: Temperature Record 44.1°F - Set on Sun, Sep 22, 2013 - 7:41:00 AM
We are currently 17.8°F More than this Month's record Low

        Records began on 03 November 2011.

Weather History For Friday, September 30, 2016


On this Day - In Weather History ...
Data courtesy of weatherforyou.com
powered by Cumulus v1.9.3 (1059)
Ambient Weather VWS v14.00
Top Contact Website Map Copyright © 2007 - 2016 Foresthillweather.com Never base important decisions on this or any weather information obtained from the Internet